Time,TemperatureF,DewpointF,PressureIn,WindDirection,WindDirectionDegrees,WindSpeedMPH,WindSpeedGustMPH,Humidity,HourlyPrecipIn,Conditions,Clouds,dailyrainin,SoftwareType,DateUTC
2013-03-04 00:00:00,62.4,55.5,29.95,SSE,165,9.2,15.2,78,0.00,,---,0.00,VWS V14.01,2013-03-04 06:00:00,
2013-03-04 00:05:00,62.4,55.5,29.95,South,170,12.2,22.2,78,0.00,,---,0.00,VWS V14.01,2013-03-04 06:05:00,
2013-03-04 00:10:00,62.4,55.5,29.95,South,172,8.2,16.2,78,0.00,,---,0.00,VWS V14.01,2013-03-04 06:10:00,
2013-03-04 00:15:00,62.4,55.5,29.95,SSW,205,5.2,17.2,78,0.00,,---,0.00,VWS V14.01,2013-03-04 06:15:00,
2013-03-04 00:20:00,62.4,55.5,29.94,South,185,11.2,16.2,78,0.00,,---,0.00,VWS V14.01,2013-03-04 06:20:00,
2013-03-04 00:25:00,62.4,55.5,29.94,South,180,6.2,18.2,78,0.00,,---,0.00,VWS V14.01,2013-03-04 06:25:00,
2013-03-04 00:30:00,62.4,55.5,29.94,SSW,196,5.2,14.2,78,0.00,,---,0.00,VWS V14.01,2013-03-04 06:30:00,
2013-03-04 00:35:00,62.4,55.8,29.94,SSE,167,13.2,17.2,79,0.00,,---,0.00,VWS V14.01,2013-03-04 06:35:00,
2013-03-04 00:40:00,62.4,55.8,29.94,South,180,10.2,14.2,79,0.00,,---,0.00,VWS V14.01,2013-03-04 06:40:00,
2013-03-04 00:45:00,62.4,55.8,29.94,South,185,10.2,15.2,79,0.00,,---,0.00,VWS V14.01,2013-03-04 06:45:00,
2013-03-04 00:50:00,62.4,55.8,29.93,South,184,14.2,17.2,79,0.00,,---,0.00,VWS V14.01,2013-03-04 06:50:00,
2013-03-04 00:55:00,62.4,55.8,29.93,South,189,12.2,16.2,79,0.00,,---,0.00,VWS V14.01,2013-03-04 06:55:00,
2013-03-04 01:00:00,62.4,56.2,29.93,South,188,7.2,20.2,80,0.00,,---,0.00,VWS V14.01,2013-03-04 07:00:00,
2013-03-04 01:05:00,62.4,56.2,29.93,SSE,156,11.2,14.2,80,0.00,,---,0.00,VWS V14.01,2013-03-04 07:05:00,
2013-03-04 01:10:00,62.4,56.2,29.93,South,169,6.2,19.2,80,0.00,,---,0.00,VWS V14.01,2013-03-04 07:10:00,
2013-03-04 01:15:00,62.4,56.2,29.93,SSE,168,11.2,17.2,80,0.00,,---,0.00,VWS V14.01,2013-03-04 07:15:00,
2013-03-04 01:20:00,62.4,56.2,29.92,SW,215,11.2,16.2,80,0.00,,---,0.00,VWS V14.01,2013-03-04 07:20:00,
2013-03-04 01:25:00,62.4,56.2,29.92,SSE,167,5.2,17.2,80,0.00,,---,0.00,VWS V14.01,2013-03-04 07:25:00,
2013-03-04 01:30:00,62.4,56.2,29.92,South,176,7.2,17.2,80,0.00,,---,0.00,VWS V14.01,2013-03-04 07:30:00,
2013-03-04 01:35:00,62.4,56.2,29.92,SSW,199,11.2,16.2,80,0.00,,---,0.00,VWS V14.01,2013-03-04 07:35:00,
2013-03-04 01:40:00,62.4,56.5,29.92,South,175,13.2,17.2,81,0.00,,---,0.00,VWS V14.01,2013-03-04 07:40:00,
2013-03-04 01:45:00,62.4,56.5,29.92,SSE,163,13.2,17.2,81,0.00,,---,0.00,VWS V14.01,2013-03-04 07:45:00,
2013-03-04 01:50:00,62.3,56.4,29.92,SSE,153,7.2,15.2,81,0.00,,---,0.00,VWS V14.01,2013-03-04 07:50:00,
2013-03-04 01:55:00,62.4,56.5,29.92,SSE,160,10.2,14.2,81,0.00,,---,0.00,VWS V14.01,2013-03-04 07:55:00,
2013-03-04 02:00:00,62.4,56.5,29.92,SSE,167,17.2,17.2,81,0.00,,---,0.00,VWS V14.01,2013-03-04 08:00:00,
2013-03-04 02:05:00,62.4,56.5,29.92,South,183,6.2,15.2,81,0.00,,---,0.00,VWS V14.01,2013-03-04 08:05:00,
2013-03-04 02:10:00,62.4,56.5,29.92,SSE,159,5.2,16.2,81,0.00,,---,0.00,VWS V14.01,2013-03-04 08:10:00,
2013-03-04 02:15:00,62.3,56.7,29.92,South,182,8.2,13.2,82,0.00,,---,0.00,VWS V14.01,2013-03-04 08:15:00,
2013-03-04 02:20:00,62.3,56.7,29.90,SSW,202,10.2,14.2,82,0.00,,---,0.00,VWS V14.01,2013-03-04 08:20:00,
2013-03-04 02:25:00,62.3,56.7,29.90,South,180,13.2,14.2,82,0.00,,---,0.00,VWS V14.01,2013-03-04 08:25:00,
2013-03-04 02:30:00,62.3,57.1,29.90,SSE,165,9.2,17.2,83,0.00,,---,0.00,VWS V14.01,2013-03-04 08:30:00,
2013-03-04 02:35:00,62.1,56.9,29.90,SW,217,7.2,14.2,83,0.00,,---,0.00,VWS V14.01,2013-03-04 08:35:00,
2013-03-04 02:40:00,62.3,57.1,29.90,SSE,164,6.2,15.2,83,0.00,,---,0.00,VWS V14.01,2013-03-04 08:40:00,
2013-03-04 02:45:00,62.1,56.9,29.90,South,169,5.2,14.2,83,0.00,,---,0.00,VWS V14.01,2013-03-04 08:45:00,
2013-03-04 02:50:00,62.1,57.2,29.89,South,171,10.2,14.2,84,0.00,,---,0.00,VWS V14.01,2013-03-04 08:50:00,
2013-03-04 02:55:00,62.1,57.2,29.89,South,184,8.2,18.2,84,0.00,,---,0.00,VWS V14.01,2013-03-04 08:55:00,
2013-03-04 03:00:00,62.1,57.2,29.89,SSE,149,5.2,13.2,84,0.00,,---,0.00,VWS V14.01,2013-03-04 09:00:00,
2013-03-04 03:05:00,62.3,57.4,29.88,South,171,12.2,16.2,84,0.00,,---,0.00,VWS V14.01,2013-03-04 09:05:00,
2013-03-04 03:10:00,62.3,57.4,29.88,South,182,6.2,13.2,84,0.00,,---,0.00,VWS V14.01,2013-03-04 09:10:00,
2013-03-04 03:15:00,62.3,57.4,29.88,South,182,12.2,15.2,84,0.00,,---,0.00,VWS V14.01,2013-03-04 09:15:00,
2013-03-04 03:20:00,62.3,57.4,29.88,SSE,161,13.2,17.2,84,0.00,,---,0.00,VWS V14.01,2013-03-04 09:20:00,
2013-03-04 03:25:00,62.3,57.4,29.88,South,175,10.2,16.2,84,0.00,,---,0.00,VWS V14.01,2013-03-04 09:25:00,
2013-03-04 03:30:00,62.3,57.4,29.88,SSE,159,4.2,16.2,84,0.00,,---,0.00,VWS V14.01,2013-03-04 09:30:00,
2013-03-04 03:35:00,62.3,57.4,29.87,South,173,7.2,15.2,84,0.00,,---,0.00,VWS V14.01,2013-03-04 09:35:00,
2013-03-04 03:40:00,62.3,57.7,29.87,South,186,3.2,14.2,85,0.00,,---,0.00,VWS V14.01,2013-03-04 09:40:00,
2013-03-04 03:45:00,62.3,57.7,29.87,SSW,195,7.2,14.2,85,0.00,,---,0.00,VWS V14.01,2013-03-04 09:45:00,
2013-03-04 03:49:00,62.3,57.7,29.87,South,177,6.2,14.2,85,0.00,,---,0.00,VWS V14.01,2013-03-04 09:49:00,
2013-03-04 03:50:00,62.0,57.8,29.86,South,183,6.2,16.2,86,0.00,,---,0.00,VWS V14.01,2013-03-04 09:50:00,
2013-03-04 03:54:00,62.3,57.7,29.87,South,169,7.2,16.2,85,0.00,,---,0.00,VWS V14.01,2013-03-04 09:54:00,
2013-03-04 03:55:00,62.0,57.8,29.86,South,188,7.2,13.2,86,0.00,,---,0.00,VWS V14.01,2013-03-04 09:55:00,
2013-03-04 03:59:00,62.3,57.7,29.87,SSW,200,11.2,15.2,85,0.00,,---,0.00,VWS V14.01,2013-03-04 09:59:00,
2013-03-04 04:00:00,62.0,57.8,29.86,South,170,11.2,14.2,86,0.00,,---,0.00,VWS V14.01,2013-03-04 10:00:00,
2013-03-04 04:04:00,62.1,57.5,29.87,South,174,8.2,14.2,85,0.00,,---,0.00,VWS V14.01,2013-03-04 10:04:00,
2013-03-04 04:05:00,62.0,57.8,29.86,SSE,167,5.2,16.2,86,0.00,,---,0.00,VWS V14.01,2013-03-04 10:05:00,
2013-03-04 04:09:00,62.1,57.5,29.87,SSE,163,11.2,15.2,85,0.00,,---,0.00,VWS V14.01,2013-03-04 10:09:00,
2013-03-04 04:10:00,62.0,58.1,29.86,SSE,154,6.2,14.2,87,0.00,,---,0.00,VWS V14.01,2013-03-04 10:10:00,
2013-03-04 04:14:00,62.1,57.5,29.87,South,174,11.2,15.2,85,0.00,,---,0.00,VWS V14.01,2013-03-04 10:14:00,
2013-03-04 04:15:00,62.0,58.1,29.86,South,169,6.2,17.2,87,0.00,,---,0.00,VWS V14.01,2013-03-04 10:15:00,
2013-03-04 04:19:00,62.1,57.5,29.87,SSW,202,10.2,18.2,85,0.00,,---,0.00,VWS V14.01,2013-03-04 10:19:00,
2013-03-04 04:20:00,62.0,58.1,29.86,SSE,165,4.2,17.2,87,0.00,,---,0.00,VWS V14.01,2013-03-04 10:20:00,
2013-03-04 04:24:00,62.1,57.5,29.87,SSE,157,5.2,12.2,85,0.00,,---,0.00,VWS V14.01,2013-03-04 10:24:00,
2013-03-04 04:25:00,62.1,57.9,29.86,South,178,12.2,16.2,86,0.00,,---,0.00,VWS V14.01,2013-03-04 10:25:00,
2013-03-04 04:29:00,62.0,57.8,29.87,SSE,159,11.2,12.2,86,0.00,,---,0.00,VWS V14.01,2013-03-04 10:29:00,
2013-03-04 04:30:00,62.1,58.2,29.86,South,169,15.2,16.2,87,0.00,,---,0.00,VWS V14.01,2013-03-04 10:30:00,
2013-03-04 04:35:00,62.0,57.8,29.87,South,172,10.2,14.2,86,0.00,,---,0.00,VWS V14.01,2013-03-04 10:35:00,
2013-03-04 04:40:00,62.0,57.8,29.87,South,190,7.2,16.2,86,0.00,,---,0.00,VWS V14.01,2013-03-04 10:40:00,
2013-03-04 04:45:00,62.0,57.8,29.87,South,180,6.2,13.2,86,0.00,,---,0.00,VWS V14.01,2013-03-04 10:45:00,
2013-03-04 04:49:00,62.0,57.8,29.86,South,171,9.2,15.2,86,0.00,,---,0.00,VWS V14.01,2013-03-04 10:49:00,
2013-03-04 04:50:00,62.1,58.2,29.84,South,183,11.2,15.2,87,0.00,,---,0.00,VWS V14.01,2013-03-04 10:50:00,
2013-03-04 04:54:00,62.0,57.8,29.86,South,184,12.2,13.2,86,0.00,,---,0.00,VWS V14.01,2013-03-04 10:54:00,
2013-03-04 04:55:00,62.1,58.2,29.84,SE,143,14.2,22.2,87,0.00,,---,0.00,VWS V14.01,2013-03-04 10:55:00,
2013-03-04 04:59:00,62.0,57.8,29.86,South,175,11.2,14.2,86,0.00,,---,0.00,VWS V14.01,2013-03-04 10:59:00,
2013-03-04 05:00:00,62.1,58.2,29.85,SSE,157,8.2,17.2,87,0.00,,---,0.00,VWS V14.01,2013-03-04 11:00:00,
2013-03-04 05:04:00,62.0,57.8,29.87,South,185,8.2,16.2,86,0.00,,---,0.00,VWS V14.01,2013-03-04 11:04:00,
2013-03-04 05:05:00,62.1,58.2,29.85,South,175,11.2,17.2,87,0.00,,---,0.00,VWS V14.01,2013-03-04 11:05:00,
2013-03-04 05:09:00,62.0,57.8,29.87,SSE,163,4.2,14.2,86,0.00,,---,0.00,VWS V14.01,2013-03-04 11:09:00,
2013-03-04 05:10:00,62.1,58.2,29.85,SSW,196,8.2,19.2,87,0.00,,---,0.00,VWS V14.01,2013-03-04 11:10:00,
2013-03-04 05:14:00,62.0,58.1,29.87,SSW,202,4.2,17.2,87,0.00,,---,0.00,VWS V14.01,2013-03-04 11:14:00,
2013-03-04 05:15:00,62.3,58.4,29.86,South,180,12.2,21.2,87,0.00,,---,0.00,VWS V14.01,2013-03-04 11:15:00,
2013-03-04 05:19:00,61.8,57.9,29.86,South,183,11.2,17.2,87,0.00,,---,0.00,VWS V14.01,2013-03-04 11:19:00,
2013-03-04 05:20:00,62.3,58.4,29.86,SSW,192,13.2,18.2,87,0.00,,---,0.00,VWS V14.01,2013-03-04 11:20:00,
2013-03-04 05:24:00,62.0,58.1,29.86,SE,140,7.2,16.2,87,0.00,,---,0.00,VWS V14.01,2013-03-04 11:24:00,
2013-03-04 05:25:00,62.3,58.4,29.86,South,172,10.2,19.2,87,0.00,,---,0.00,VWS V14.01,2013-03-04 11:25:00,
2013-03-04 05:29:00,62.1,57.9,29.86,South,184,13.2,15.2,86,0.00,,---,0.00,VWS V14.01,2013-03-04 11:29:00,
2013-03-04 05:30:00,62.3,58.4,29.86,SW,214,20.2,20.2,87,0.00,,---,0.00,VWS V14.01,2013-03-04 11:30:00,
2013-03-04 05:34:00,62.1,57.9,29.85,South,178,12.2,17.2,86,0.00,,---,0.00,VWS V14.01,2013-03-04 11:34:00,
2013-03-04 05:35:00,62.3,58.1,29.86,South,177,13.2,20.2,86,0.00,,---,0.00,VWS V14.01,2013-03-04 11:35:00,
2013-03-04 05:39:00,62.1,57.9,29.85,SE,126,7.2,14.2,86,0.00,,---,0.00,VWS V14.01,2013-03-04 11:39:00,
2013-03-04 05:40:00,62.3,58.4,29.86,SSE,163,11.2,19.2,87,0.00,,---,0.00,VWS V14.01,2013-03-04 11:40:00,
2013-03-04 05:44:00,62.0,58.1,29.85,South,176,11.2,19.2,87,0.00,,---,0.00,VWS V14.01,2013-03-04 11:44:00,
2013-03-04 05:45:00,62.3,58.4,29.86,SSE,163,5.2,14.2,87,0.00,,---,0.00,VWS V14.01,2013-03-04 11:45:00,
2013-03-04 05:49:00,62.1,58.2,29.84,SSE,168,8.2,15.2,87,0.00,,---,0.00,VWS V14.01,2013-03-04 11:49:00,
2013-03-04 05:50:00,62.1,58.2,29.86,South,171,4.2,15.2,87,0.00,,---,0.00,VWS V14.01,2013-03-04 11:50:00,
2013-03-04 05:54:00,62.1,58.2,29.84,South,174,7.2,22.2,87,0.00,,---,0.00,VWS V14.01,2013-03-04 11:54:00,
2013-03-04 05:55:00,62.3,58.4,29.86,SSW,202,9.2,16.2,87,0.00,,---,0.00,VWS V14.01,2013-03-04 11:55:00,
2013-03-04 05:59:00,62.1,58.2,29.84,South,185,5.2,17.2,87,0.00,,---,0.00,VWS V14.01,2013-03-04 11:59:00,
2013-03-04 06:00:00,62.3,58.4,29.86,SSE,165,8.2,18.2,87,0.00,,---,0.00,VWS V14.01,2013-03-04 12:00:00,
2013-03-04 06:04:00,62.1,58.2,29.85,SSE,159,8.2,17.2,87,0.00,,---,0.00,VWS V14.01,2013-03-04 12:04:00,
2013-03-04 06:05:00,62.3,58.4,29.86,SSW,192,6.2,18.2,87,0.00,,---,0.00,VWS V14.01,2013-03-04 12:05:00,
2013-03-04 06:09:00,62.1,58.2,29.85,SE,142,6.2,19.2,87,0.00,,---,0.00,VWS V14.01,2013-03-04 12:09:00,
2013-03-04 06:10:00,62.3,58.4,29.86,South,189,12.2,16.2,87,0.00,,---,0.00,VWS V14.01,2013-03-04 12:10:00,
2013-03-04 06:14:00,62.3,58.4,29.85,South,169,4.2,17.2,87,0.00,,---,0.00,VWS V14.01,2013-03-04 12:14:00,
2013-03-04 06:15:00,62.4,58.5,29.86,SE,146,7.2,17.2,87,0.00,,---,0.00,VWS V14.01,2013-03-04 12:15:00,
2013-03-04 06:19:00,62.3,58.1,29.85,SSE,160,7.2,16.2,86,0.00,,---,0.00,VWS V14.01,2013-03-04 12:19:00,
2013-03-04 06:20:00,62.6,58.7,29.86,South,184,5.2,15.2,87,0.00,,---,0.00,VWS V14.01,2013-03-04 12:20:00,
2013-03-04 06:24:00,62.3,58.4,29.85,SW,227,19.2,19.2,87,0.00,,---,0.00,VWS V14.01,2013-03-04 12:24:00,
2013-03-04 06:25:00,62.6,58.4,29.86,SSW,212,8.2,12.2,86,0.00,,---,0.00,VWS V14.01,2013-03-04 12:25:00,
2013-03-04 06:29:00,62.3,58.4,29.85,South,186,11.2,17.2,87,0.00,,---,0.00,VWS V14.01,2013-03-04 12:29:00,
2013-03-04 06:30:00,62.7,58.5,29.87,SSE,159,8.2,17.2,86,0.00,,---,0.00,VWS V14.01,2013-03-04 12:30:00,
2013-03-04 06:34:00,62.3,58.4,29.86,South,188,10.2,20.2,87,0.00,,---,0.00,VWS V14.01,2013-03-04 12:34:00,
2013-03-04 06:35:00,63.1,58.5,29.87,South,175,12.2,17.2,85,0.00,,---,0.00,VWS V14.01,2013-03-04 12:35:00,
2013-03-04 06:39:00,62.3,58.4,29.86,SSW,198,8.2,19.2,87,0.00,,---,0.00,VWS V14.01,2013-03-04 12:39:00,
2013-03-04 06:40:00,63.2,58.6,29.87,SW,221,13.2,18.2,85,0.00,,---,0.00,VWS V14.01,2013-03-04 12:40:00,
2013-03-04 06:44:00,62.3,58.4,29.86,SSW,192,6.2,14.2,87,0.00,,---,0.00,VWS V14.01,2013-03-04 12:44:00,
2013-03-04 06:45:00,63.4,58.8,29.87,SSE,159,14.2,17.2,85,0.00,,---,0.00,VWS V14.01,2013-03-04 12:45:00,
2013-03-04 06:49:00,62.1,58.2,29.86,SSE,168,5.2,15.2,87,0.00,,---,0.00,VWS V14.01,2013-03-04 12:49:00,
2013-03-04 06:50:00,63.5,58.6,29.87,SW,229,14.2,16.2,84,0.00,,---,0.00,VWS V14.01,2013-03-04 12:50:00,
2013-03-04 06:54:00,62.1,58.2,29.86,SSE,163,11.2,16.2,87,0.00,,---,0.00,VWS V14.01,2013-03-04 12:54:00,
2013-03-04 06:55:00,63.9,59.0,29.87,SE,146,11.2,18.2,84,0.00,,---,0.00,VWS V14.01,2013-03-04 12:55:00,
2013-03-04 06:59:00,62.3,58.4,29.86,South,170,8.2,18.2,87,0.00,,---,0.00,VWS V14.01,2013-03-04 12:59:00,
2013-03-04 07:00:00,64.0,58.7,29.87,South,188,5.2,18.2,83,0.00,,---,0.00,VWS V14.01,2013-03-04 13:00:00,
2013-03-04 07:04:00,62.3,58.4,29.86,South,177,5.2,18.2,87,0.00,,---,0.00,VWS V14.01,2013-03-04 13:04:00,
2013-03-04 07:05:00,64.3,59.0,29.87,SSE,166,11.2,19.2,83,0.00,,---,0.00,VWS V14.01,2013-03-04 13:05:00,
2013-03-04 07:09:00,62.3,58.4,29.86,South,188,12.2,15.2,87,0.00,,---,0.00,VWS V14.01,2013-03-04 13:09:00,
2013-03-04 07:10:00,64.5,58.9,29.87,South,172,9.2,18.2,82,0.00,,---,0.00,VWS V14.01,2013-03-04 13:10:00,
2013-03-04 07:14:00,62.4,58.5,29.86,SSE,157,10.2,17.2,87,0.00,,---,0.00,VWS V14.01,2013-03-04 13:14:00,
2013-03-04 07:15:00,64.7,59.1,29.87,South,177,9.2,20.2,82,0.00,,---,0.00,VWS V14.01,2013-03-04 13:15:00,
2013-03-04 07:19:00,62.6,58.7,29.87,South,170,5.2,15.2,87,0.00,,---,0.00,VWS V14.01,2013-03-04 13:19:00,
2013-03-04 07:20:00,65.0,59.0,29.87,SSW,207,13.2,17.2,81,0.00,,---,0.00,VWS V14.01,2013-03-04 13:20:00,
2013-03-04 07:24:00,62.6,58.4,29.87,South,180,7.2,12.2,86,0.00,,---,0.00,VWS V14.01,2013-03-04 13:24:00,
2013-03-04 07:25:00,65.2,58.9,29.87,SSE,155,11.2,21.2,80,0.00,,---,0.00,VWS V14.01,2013-03-04 13:25:00,
2013-03-04 07:29:00,62.7,58.5,29.87,SSE,163,6.2,15.2,86,0.00,,---,0.00,VWS V14.01,2013-03-04 13:29:00,
2013-03-04 07:30:00,65.3,59.0,29.87,SW,224,13.2,23.2,80,0.00,,---,0.00,VWS V14.01,2013-03-04 13:30:00,
2013-03-04 07:34:00,63.1,58.8,29.87,South,171,11.2,17.2,86,0.00,,---,0.00,VWS V14.01,2013-03-04 13:34:00,
2013-03-04 07:35:00,65.6,58.9,29.87,SE,134,16.2,21.2,79,0.00,,---,0.00,VWS V14.01,2013-03-04 13:35:00,
2013-03-04 07:39:00,63.2,58.6,29.87,SSW,195,8.2,18.2,85,0.00,,---,0.00,VWS V14.01,2013-03-04 13:39:00,
2013-03-04 07:40:00,66.0,59.3,29.87,SSE,163,7.2,20.2,79,0.00,,---,0.00,VWS V14.01,2013-03-04 13:40:00,
2013-03-04 07:44:00,63.4,58.8,29.87,South,189,10.2,17.2,85,0.00,,---,0.00,VWS V14.01,2013-03-04 13:44:00,
2013-03-04 07:45:00,66.1,59.0,29.87,SSE,152,6.2,23.2,78,0.00,,---,0.00,VWS V14.01,2013-03-04 13:45:00,
2013-03-04 07:49:00,63.5,58.6,29.87,South,182,16.2,16.2,84,0.00,,---,0.00,VWS V14.01,2013-03-04 13:49:00,
2013-03-04 07:50:00,66.1,59.0,29.87,SSE,157,9.2,21.2,78,0.00,,---,0.00,VWS V14.01,2013-03-04 13:50:00,
2013-03-04 07:54:00,63.9,59.0,29.87,South,171,10.2,17.2,84,0.00,,---,0.00,VWS V14.01,2013-03-04 13:54:00,
2013-03-04 07:55:00,66.6,59.2,29.87,South,190,13.2,21.2,77,0.00,,---,0.00,VWS V14.01,2013-03-04 13:55:00,
2013-03-04 07:59:00,64.0,58.7,29.87,South,188,11.2,18.2,83,0.00,,---,0.00,VWS V14.01,2013-03-04 13:59:00,
2013-03-04 08:00:00,66.8,59.4,29.87,South,169,15.2,19.2,77,0.00,,---,0.00,VWS V14.01,2013-03-04 14:00:00,
2013-03-04 08:04:00,64.2,58.9,29.87,South,190,15.2,19.2,83,0.00,,---,0.00,VWS V14.01,2013-03-04 14:04:00,
2013-03-04 08:05:00,66.9,59.1,29.87,South,169,15.2,26.2,76,0.00,,---,0.00,VWS V14.01,2013-03-04 14:05:00,
2013-03-04 08:09:00,64.3,58.7,29.87,South,177,4.2,18.2,82,0.00,,---,0.00,VWS V14.01,2013-03-04 14:09:00,
2013-03-04 08:10:00,66.9,58.7,29.87,South,171,16.2,21.2,75,0.00,,---,0.00,VWS V14.01,2013-03-04 14:10:00,
2013-03-04 08:14:00,64.7,59.1,29.87,SSE,160,11.2,20.2,82,0.00,,---,0.00,VWS V14.01,2013-03-04 14:14:00,
2013-03-04 08:15:00,66.9,59.1,29.87,SSE,153,16.2,20.2,76,0.00,,---,0.00,VWS V14.01,2013-03-04 14:15:00,
2013-03-04 08:19:00,64.8,58.8,29.87,South,170,13.2,17.2,81,0.00,,---,0.00,VWS V14.01,2013-03-04 14:19:00,
2013-03-04 08:20:00,66.8,59.0,29.87,South,177,13.2,21.2,76,0.00,,---,0.00,VWS V14.01,2013-03-04 14:20:00,
2013-03-04 08:24:00,65.2,59.2,29.87,SSE,157,11.2,21.2,81,0.00,,---,0.00,VWS V14.01,2013-03-04 14:24:00,
2013-03-04 08:25:00,67.1,59.3,29.87,SSW,204,14.2,19.2,76,0.00,,---,0.00,VWS V14.01,2013-03-04 14:25:00,
2013-03-04 08:29:00,65.3,59.0,29.87,SSW,202,11.2,23.2,80,0.00,,---,0.00,VWS V14.01,2013-03-04 14:29:00,
2013-03-04 08:30:00,67.6,59.4,29.87,SSW,196,5.2,17.2,75,0.00,,---,0.00,VWS V14.01,2013-03-04 14:30:00,
2013-03-04 08:34:00,65.5,59.2,29.87,SSW,197,19.2,19.2,80,0.00,,---,0.00,VWS V14.01,2013-03-04 14:34:00,
2013-03-04 08:35:00,68.1,59.1,29.87,SSW,209,11.2,18.2,73,0.00,,---,0.00,VWS V14.01,2013-03-04 14:35:00,
2013-03-04 08:39:00,65.8,59.1,29.87,SSE,160,10.2,20.2,79,0.00,,---,0.00,VWS V14.01,2013-03-04 14:39:00,
2013-03-04 08:40:00,68.1,59.1,29.87,SSW,200,9.2,23.2,73,0.00,,---,0.00,VWS V14.01,2013-03-04 14:40:00,
2013-03-04 08:44:00,66.1,59.0,29.87,SSW,200,10.2,20.2,78,0.00,,---,0.00,VWS V14.01,2013-03-04 14:44:00,
2013-03-04 08:45:00,68.8,59.4,29.87,South,169,6.2,18.2,72,0.00,,---,0.00,VWS V14.01,2013-03-04 14:45:00,
2013-03-04 08:49:00,66.1,59.0,29.87,SSE,155,12.2,21.2,78,0.00,,---,0.00,VWS V14.01,2013-03-04 14:49:00,
2013-03-04 08:50:00,69.1,59.7,29.87,South,173,4.2,18.2,72,0.00,,---,0.00,VWS V14.01,2013-03-04 14:50:00,
2013-03-04 08:54:00,66.4,59.0,29.87,SSW,213,13.2,21.2,77,0.00,,---,0.00,VWS V14.01,2013-03-04 14:54:00,
2013-03-04 08:55:00,68.8,59.8,29.87,ESE,114,9.2,21.2,73,0.00,,---,0.00,VWS V14.01,2013-03-04 14:55:00,
2013-03-04 08:59:00,66.8,59.0,29.87,SSW,200,13.2,18.2,76,0.00,,---,0.00,VWS V14.01,2013-03-04 14:59:00,
2013-03-04 09:00:00,68.9,59.5,29.86,SSW,194,10.2,19.2,72,0.00,,---,0.00,VWS V14.01,2013-03-04 15:00:00,
2013-03-04 09:04:00,66.8,59.4,29.87,SE,139,8.2,26.2,77,0.00,,---,0.00,VWS V14.01,2013-03-04 15:04:00,
2013-03-04 09:05:00,68.9,59.1,29.86,South,179,20.2,21.2,71,0.00,,---,0.00,VWS V14.01,2013-03-04 15:05:00,
2013-03-04 09:09:00,67.1,58.9,29.87,SSW,200,9.2,21.2,75,0.00,,---,0.00,VWS V14.01,2013-03-04 15:09:00,
2013-03-04 09:10:00,69.1,59.7,29.86,SSE,157,13.2,23.2,72,0.00,,---,0.00,VWS V14.01,2013-03-04 15:10:00,
2013-03-04 09:14:00,66.8,59.0,29.87,South,182,6.2,20.2,76,0.00,,---,0.00,VWS V14.01,2013-03-04 15:14:00,
2013-03-04 09:15:00,69.3,59.5,29.86,SE,138,12.2,22.2,71,0.00,,---,0.00,VWS V14.01,2013-03-04 15:15:00,
2013-03-04 09:19:00,66.9,59.1,29.87,South,175,13.2,21.2,76,0.00,,---,0.00,VWS V14.01,2013-03-04 15:19:00,
2013-03-04 09:20:00,69.6,59.8,29.86,SSE,158,12.2,21.2,71,0.00,,---,0.00,VWS V14.01,2013-03-04 15:20:00,
2013-03-04 09:24:00,67.1,59.3,29.87,South,188,5.2,19.2,76,0.00,,---,0.00,VWS V14.01,2013-03-04 15:24:00,
2013-03-04 09:25:00,69.9,59.7,29.86,South,176,10.2,21.2,70,0.00,,---,0.00,VWS V14.01,2013-03-04 15:25:00,
2013-03-04 09:29:00,67.6,59.4,29.87,South,190,8.2,17.2,75,0.00,,---,0.00,VWS V14.01,2013-03-04 15:29:00,
2013-03-04 09:30:00,70.1,59.9,29.84,South,180,10.2,22.2,70,0.00,,---,0.00,VWS V14.01,2013-03-04 15:30:00,
2013-03-04 09:34:00,67.9,59.3,29.87,SW,223,11.2,15.2,74,0.00,,---,0.00,VWS V14.01,2013-03-04 15:34:00,
2013-03-04 09:35:00,70.3,59.7,29.84,SSE,158,17.2,21.2,69,0.00,,---,0.00,VWS V14.01,2013-03-04 15:35:00,
2013-03-04 09:39:00,68.3,59.3,29.87,South,173,11.2,16.2,73,0.00,,---,0.00,VWS V14.01,2013-03-04 15:39:00,
2013-03-04 09:40:00,70.4,59.8,29.84,SSE,152,23.2,27.2,69,0.00,,---,0.00,VWS V14.01,2013-03-04 15:40:00,
2013-03-04 09:44:00,68.6,59.6,29.87,SSW,212,10.2,18.2,73,0.00,,---,0.00,VWS V14.01,2013-03-04 15:44:00,
2013-03-04 09:45:00,70.4,59.8,29.83,SSE,156,12.2,23.2,69,0.00,,---,0.00,VWS V14.01,2013-03-04 15:45:00,
2013-03-04 09:49:00,69.1,59.7,29.87,South,173,17.2,18.2,72,0.00,,---,0.00,VWS V14.01,2013-03-04 15:49:00,
2013-03-04 09:50:00,70.8,59.7,29.83,SSE,156,13.2,21.2,68,0.00,,---,0.00,VWS V14.01,2013-03-04 15:50:00,
2013-03-04 09:54:00,68.9,59.5,29.87,SSW,196,11.2,21.2,72,0.00,,---,0.00,VWS V14.01,2013-03-04 15:54:00,
2013-03-04 09:55:00,70.8,60.1,29.83,South,189,10.2,22.2,69,0.00,,---,0.00,VWS V14.01,2013-03-04 15:55:00,
2013-03-04 09:59:00,68.8,59.4,29.87,South,169,12.2,19.2,72,0.00,,---,0.00,VWS V14.01,2013-03-04 15:59:00,
2013-03-04 10:00:00,71.3,59.8,29.83,South,187,14.2,21.2,67,0.00,,---,0.00,VWS V14.01,2013-03-04 16:00:00,
2013-03-04 10:04:00,68.9,59.5,29.86,South,182,16.2,16.2,72,0.00,,---,0.00,VWS V14.01,2013-03-04 16:04:00,
2013-03-04 10:05:00,71.5,60.0,29.83,South,186,10.2,22.2,67,0.00,,---,0.00,VWS V14.01,2013-03-04 16:05:00,
2013-03-04 10:09:00,68.9,59.5,29.86,SSW,195,12.2,23.2,72,0.00,,---,0.00,VWS V14.01,2013-03-04 16:09:00,
2013-03-04 10:10:00,71.6,60.1,29.83,SE,139,21.2,24.2,67,0.00,,---,0.00,VWS V14.01,2013-03-04 16:10:00,
2013-03-04 10:14:00,69.3,59.5,29.86,SSE,163,15.2,21.2,71,0.00,,---,0.00,VWS V14.01,2013-03-04 16:14:00,
2013-03-04 10:15:00,72.0,60.0,29.82,South,177,9.2,21.2,66,0.00,,---,0.00,VWS V14.01,2013-03-04 16:15:00,
2013-03-04 10:19:00,69.4,59.2,29.85,South,183,15.2,21.2,70,0.00,,---,0.00,VWS V14.01,2013-03-04 16:19:00,
2013-03-04 10:20:00,71.8,59.8,29.82,South,173,12.2,22.2,66,0.00,,---,0.00,VWS V14.01,2013-03-04 16:20:00,
2013-03-04 10:24:00,69.9,59.7,29.85,SSW,193,11.2,17.2,70,0.00,,---,0.00,VWS V14.01,2013-03-04 16:24:00,
2013-03-04 10:25:00,72.1,59.7,29.82,SSE,161,13.2,20.2,65,0.00,,---,0.00,VWS V14.01,2013-03-04 16:25:00,
2013-03-04 10:29:00,69.9,59.7,29.85,SSE,161,15.2,19.2,70,0.00,,---,0.00,VWS V14.01,2013-03-04 16:29:00,
2013-03-04 10:30:00,72.7,60.3,29.83,SSW,200,8.2,22.2,65,0.00,,---,0.00,VWS V14.01,2013-03-04 16:30:00,
2013-03-04 10:34:00,70.1,59.9,29.84,South,174,6.2,20.2,70,0.00,,---,0.00,VWS V14.01,2013-03-04 16:34:00,
2013-03-04 10:35:00,73.0,59.7,29.83,SSE,158,13.2,22.2,63,0.00,,---,0.00,VWS V14.01,2013-03-04 16:35:00,
2013-03-04 10:39:00,70.4,59.8,29.84,SSE,160,8.2,27.2,69,0.00,,---,0.00,VWS V14.01,2013-03-04 16:39:00,
2013-03-04 10:40:00,73.2,59.9,29.83,SSE,162,11.2,20.2,63,0.00,,---,0.00,VWS V14.01,2013-03-04 16:40:00,
2013-03-04 10:44:00,70.6,59.5,29.84,SSE,166,11.2,23.2,68,0.00,,---,0.00,VWS V14.01,2013-03-04 16:44:00,
2013-03-04 10:45:00,73.2,59.9,29.82,SSE,155,12.2,22.2,63,0.00,,---,0.00,VWS V14.01,2013-03-04 16:45:00,
2013-03-04 10:49:00,70.6,60.0,29.83,South,175,9.2,17.2,69,0.00,,---,0.00,VWS V14.01,2013-03-04 16:49:00,
2013-03-04 10:50:00,73.5,60.2,29.82,SSE,158,5.2,19.2,63,0.00,,---,0.00,VWS V14.01,2013-03-04 16:50:00,
2013-03-04 10:54:00,70.6,60.0,29.83,South,169,12.2,22.2,69,0.00,,---,0.00,VWS V14.01,2013-03-04 16:54:00,
2013-03-04 10:55:00,73.2,59.9,29.82,South,184,13.2,24.2,63,0.00,,---,0.00,VWS V14.01,2013-03-04 16:55:00,
2013-03-04 10:59:00,71.3,59.8,29.83,SSE,150,14.2,20.2,67,0.00,,---,0.00,VWS V14.01,2013-03-04 16:59:00,
2013-03-04 11:00:00,73.2,59.9,29.81,South,173,11.2,20.2,63,0.00,,---,0.00,VWS V14.01,2013-03-04 17:00:00,
2013-03-04 11:04:00,71.3,59.8,29.83,SSE,167,11.2,22.2,67,0.00,,---,0.00,VWS V14.01,2013-03-04 17:04:00,
2013-03-04 11:05:00,73.7,60.3,29.81,South,178,11.2,17.2,63,0.00,,---,0.00,VWS V14.01,2013-03-04 17:05:00,
2013-03-04 11:09:00,71.6,60.1,29.83,South,172,13.2,24.2,67,0.00,,---,0.00,VWS V14.01,2013-03-04 17:09:00,
2013-03-04 11:10:00,73.5,60.2,29.81,SE,146,14.2,20.2,63,0.00,,---,0.00,VWS V14.01,2013-03-04 17:10:00,
2013-03-04 11:14:00,71.8,60.3,29.83,SE,136,16.2,21.2,67,0.00,,---,0.00,VWS V14.01,2013-03-04 17:14:00,
2013-03-04 11:15:00,74.4,60.5,29.80,South,179,11.2,18.2,62,0.00,,---,0.00,VWS V14.01,2013-03-04 17:15:00,
2013-03-04 11:19:00,72.1,60.1,29.82,South,173,17.2,21.2,66,0.00,,---,0.00,VWS V14.01,2013-03-04 17:19:00,
2013-03-04 11:20:00,73.7,60.3,29.80,South,169,11.2,22.2,63,0.00,,---,0.00,VWS V14.01,2013-03-04 17:20:00,
2013-03-04 11:24:00,72.1,59.7,29.82,SSE,163,12.2,19.2,65,0.00,,---,0.00,VWS V14.01,2013-03-04 17:24:00,
2013-03-04 11:25:00,73.7,60.3,29.80,South,191,11.2,22.2,63,0.00,,---,0.00,VWS V14.01,2013-03-04 17:25:00,
2013-03-04 11:29:00,72.5,60.5,29.82,SE,145,14.2,22.2,66,0.00,,---,0.00,VWS V14.01,2013-03-04 17:29:00,
2013-03-04 11:30:00,73.5,60.2,29.79,SE,140,14.2,24.2,63,0.00,,---,0.00,VWS V14.01,2013-03-04 17:30:00,
2013-03-04 11:34:00,72.8,59.9,29.83,SE,138,13.2,19.2,64,0.00,,---,0.00,VWS V14.01,2013-03-04 17:34:00,
2013-03-04 11:35:00,73.5,60.6,29.79,SSE,152,8.2,21.2,64,0.00,,---,0.00,VWS V14.01,2013-03-04 17:35:00,
2013-03-04 11:39:00,73.0,59.7,29.83,SW,231,12.2,20.2,63,0.00,,---,0.00,VWS V14.01,2013-03-04 17:39:00,
2013-03-04 11:40:00,73.7,60.3,29.79,SSE,162,11.2,22.2,63,0.00,,---,0.00,VWS V14.01,2013-03-04 17:40:00,
2013-03-04 11:44:00,73.3,60.0,29.83,SSE,153,16.2,22.2,63,0.00,,---,0.00,VWS V14.01,2013-03-04 17:44:00,
2013-03-04 11:45:00,73.7,60.8,29.78,SE,144,19.2,19.2,64,0.00,,---,0.00,VWS V14.01,2013-03-04 17:45:00,
2013-03-04 11:49:00,73.5,59.7,29.82,SSW,194,12.2,19.2,62,0.00,,---,0.00,VWS V14.01,2013-03-04 17:49:00,
2013-03-04 11:50:00,73.7,60.8,29.78,SE,134,11.2,23.2,64,0.00,,---,0.00,VWS V14.01,2013-03-04 17:50:00,
2013-03-04 11:54:00,73.3,60.4,29.82,SSE,151,11.2,24.2,64,0.00,,---,0.00,VWS V14.01,2013-03-04 17:54:00,
2013-03-04 11:55:00,74.2,61.2,29.78,SE,139,16.2,21.2,64,0.00,,---,0.00,VWS V14.01,2013-03-04 17:55:00,
2013-03-04 11:59:00,73.3,60.4,29.82,SE,146,20.2,20.2,64,0.00,,---,0.00,VWS V14.01,2013-03-04 17:59:00,
2013-03-04 12:00:00,73.7,60.8,29.77,South,189,13.2,22.2,64,0.00,,---,0.00,VWS V14.01,2013-03-04 18:00:00,
2013-03-04 12:04:00,73.3,60.0,29.81,South,184,11.2,17.2,63,0.00,,---,0.00,VWS V14.01,2013-03-04 18:04:00,
2013-03-04 12:05:00,73.9,61.4,29.77,South,173,13.2,28.2,65,0.00,,---,0.00,VWS V14.01,2013-03-04 18:05:00,
2013-03-04 12:09:00,73.5,60.6,29.81,South,189,8.2,20.2,64,0.00,,---,0.00,VWS V14.01,2013-03-04 18:09:00,
2013-03-04 12:10:00,73.3,60.8,29.77,SSE,148,11.2,26.2,65,0.00,,---,0.00,VWS V14.01,2013-03-04 18:10:00,
2013-03-04 12:14:00,73.9,60.5,29.81,SSE,163,11.2,18.2,63,0.00,,---,0.00,VWS V14.01,2013-03-04 18:14:00,
2013-03-04 12:15:00,73.7,61.7,29.76,South,185,10.2,22.2,66,0.00,,---,0.00,VWS V14.01,2013-03-04 18:15:00,
2013-03-04 12:19:00,74.2,60.8,29.80,SSE,168,22.2,22.2,63,0.00,,---,0.00,VWS V14.01,2013-03-04 18:19:00,
2013-03-04 12:20:00,73.7,61.2,29.76,SSW,195,13.2,24.2,65,0.00,,---,0.00,VWS V14.01,2013-03-04 18:20:00,
2013-03-04 12:24:00,73.7,60.3,29.80,SSE,148,10.2,20.2,63,0.00,,---,0.00,VWS V14.01,2013-03-04 18:24:00,
2013-03-04 12:25:00,73.5,61.0,29.76,South,178,15.2,23.2,65,0.00,,---,0.00,VWS V14.01,2013-03-04 18:25:00,
2013-03-04 12:29:00,73.5,60.6,29.80,SE,146,10.2,24.2,64,0.00,,---,0.00,VWS V14.01,2013-03-04 18:29:00,
2013-03-04 12:30:00,73.7,61.2,29.76,South,171,14.2,23.2,65,0.00,,---,0.00,VWS V14.01,2013-03-04 18:30:00,
2013-03-04 12:34:00,73.5,60.6,29.79,SE,137,16.2,21.2,64,0.00,,---,0.00,VWS V14.01,2013-03-04 18:34:00,
2013-03-04 12:35:00,73.3,61.3,29.76,SSE,151,11.2,32.2,66,0.00,,---,0.00,VWS V14.01,2013-03-04 18:35:00,
2013-03-04 12:39:00,73.7,60.3,29.79,SSE,163,19.2,21.2,63,0.00,,---,0.00,VWS V14.01,2013-03-04 18:39:00,
2013-03-04 12:40:00,73.2,61.2,29.76,SSE,155,15.2,25.2,66,0.00,,---,0.00,VWS V14.01,2013-03-04 18:40:00,
2013-03-04 12:44:00,73.9,61.0,29.79,SSE,152,17.2,18.2,64,0.00,,---,0.00,VWS V14.01,2013-03-04 18:44:00,
2013-03-04 12:45:00,73.0,61.4,29.75,SSE,152,20.2,23.2,67,0.00,,---,0.00,VWS V14.01,2013-03-04 18:45:00,
2013-03-04 12:49:00,73.9,60.5,29.78,SSE,155,11.2,21.2,63,0.00,,---,0.00,VWS V14.01,2013-03-04 18:49:00,
2013-03-04 12:50:00,73.7,61.2,29.75,SSE,150,15.2,27.2,65,0.00,,---,0.00,VWS V14.01,2013-03-04 18:50:00,
2013-03-04 12:54:00,74.0,59.7,29.78,SSE,157,7.2,20.2,61,0.00,,---,0.00,VWS V14.01,2013-03-04 18:54:00,
2013-03-04 12:55:00,73.7,61.2,29.75,SSE,155,11.2,26.2,65,0.00,,---,0.00,VWS V14.01,2013-03-04 18:55:00,
2013-03-04 12:59:00,74.0,61.1,29.78,South,174,16.2,22.2,64,0.00,,---,0.00,VWS V14.01,2013-03-04 18:59:00,
2013-03-04 13:00:00,73.5,61.5,29.74,SSE,161,16.2,22.2,66,0.00,,---,0.00,VWS V14.01,2013-03-04 19:00:00,
2013-03-04 13:04:00,73.9,61.4,29.77,South,171,12.2,28.2,65,0.00,,---,0.00,VWS V14.01,2013-03-04 19:04:00,
2013-03-04 13:05:00,72.8,59.5,29.74,SSE,165,16.2,28.2,63,0.00,,---,0.00,VWS V14.01,2013-03-04 19:05:00,
2013-03-04 13:09:00,73.5,61.0,29.77,SSE,152,18.2,25.2,65,0.00,,---,0.00,VWS V14.01,2013-03-04 19:09:00,
2013-03-04 13:10:00,73.0,61.4,29.74,SE,138,14.2,27.2,67,0.00,,---,0.00,VWS V14.01,2013-03-04 19:10:00,
2013-03-04 13:14:00,73.5,61.0,29.77,SSW,196,15.2,22.2,65,0.00,,---,0.00,VWS V14.01,2013-03-04 19:14:00,
2013-03-04 13:15:00,73.0,61.4,29.73,SSE,166,20.2,24.2,67,0.00,,---,0.00,VWS V14.01,2013-03-04 19:15:00,
2013-03-04 13:19:00,74.0,61.1,29.76,SSE,159,12.2,24.2,64,0.00,,---,0.00,VWS V14.01,2013-03-04 19:19:00,
2013-03-04 13:20:00,73.0,61.4,29.73,South,170,16.2,26.2,67,0.00,,---,0.00,VWS V14.01,2013-03-04 19:20:00,
2013-03-04 13:24:00,73.5,61.0,29.76,SE,140,23.2,23.2,65,0.00,,---,0.00,VWS V14.01,2013-03-04 19:24:00,
2013-03-04 13:25:00,73.0,61.4,29.73,SSE,159,18.2,29.2,67,0.00,,---,0.00,VWS V14.01,2013-03-04 19:25:00,
2013-03-04 13:29:00,73.7,61.2,29.76,SSE,165,14.2,23.2,65,0.00,,---,0.00,VWS V14.01,2013-03-04 19:29:00,
2013-03-04 13:30:00,73.2,61.6,29.73,SSE,153,16.2,22.2,67,0.00,,---,0.00,VWS V14.01,2013-03-04 19:30:00,
2013-03-04 13:34:00,73.5,61.5,29.76,SE,135,15.2,32.2,66,0.00,,---,0.00,VWS V14.01,2013-03-04 19:34:00,
2013-03-04 13:35:00,73.0,61.4,29.73,South,171,6.2,25.2,67,0.00,,---,0.00,VWS V14.01,2013-03-04 19:35:00,
2013-03-04 13:39:00,73.2,61.2,29.76,SE,144,14.2,25.2,66,0.00,,---,0.00,VWS V14.01,2013-03-04 19:39:00,
2013-03-04 13:40:00,73.0,61.4,29.73,SSE,165,18.2,24.2,67,0.00,,---,0.00,VWS V14.01,2013-03-04 19:40:00,
2013-03-04 13:44:00,73.0,61.4,29.76,SSE,149,8.2,23.2,67,0.00,,---,0.00,VWS V14.01,2013-03-04 19:44:00,
2013-03-04 13:45:00,73.0,61.4,29.73,SSE,152,14.2,27.2,67,0.00,,---,0.00,VWS V14.01,2013-03-04 19:45:00,
2013-03-04 13:49:00,73.5,61.5,29.75,SE,142,6.2,27.2,66,0.00,,---,0.00,VWS V14.01,2013-03-04 19:49:00,
2013-03-04 13:50:00,73.3,61.7,29.73,SE,139,15.2,21.2,67,0.00,,---,0.00,VWS V14.01,2013-03-04 19:50:00,
2013-03-04 13:54:00,73.9,61.4,29.75,SSE,161,18.2,22.2,65,0.00,,---,0.00,VWS V14.01,2013-03-04 19:54:00,
2013-03-04 13:55:00,73.0,61.4,29.73,SSE,149,18.2,28.2,67,0.00,,---,0.00,VWS V14.01,2013-03-04 19:55:00,
2013-03-04 13:59:00,73.7,61.7,29.75,South,175,15.2,21.2,66,0.00,,---,0.00,VWS V14.01,2013-03-04 19:59:00,
2013-03-04 14:00:00,73.0,61.4,29.72,SSE,160,12.2,24.2,67,0.00,,---,0.00,VWS V14.01,2013-03-04 20:00:00,
2013-03-04 14:04:00,73.0,61.4,29.74,SE,144,16.2,22.2,67,0.00,,---,0.00,VWS V14.01,2013-03-04 20:04:00,
2013-03-04 14:05:00,72.8,61.6,29.72,SSE,167,15.2,25.2,68,0.00,,---,0.00,VWS V14.01,2013-03-04 20:05:00,
2013-03-04 14:09:00,73.2,61.6,29.74,SSE,152,15.2,27.2,67,0.00,,---,0.00,VWS V14.01,2013-03-04 20:09:00,
2013-03-04 14:10:00,72.7,61.5,29.72,South,171,13.2,25.2,68,0.00,,---,0.00,VWS V14.01,2013-03-04 20:10:00,
2013-03-04 14:14:00,73.0,61.4,29.74,South,183,8.2,21.2,67,0.00,,---,0.00,VWS V14.01,2013-03-04 20:14:00,
2013-03-04 14:15:00,72.3,61.6,29.72,SSE,153,10.2,24.2,69,0.00,,---,0.00,VWS V14.01,2013-03-04 20:15:00,
2013-03-04 14:19:00,73.0,61.4,29.73,SSW,198,10.2,26.2,67,0.00,,---,0.00,VWS V14.01,2013-03-04 20:19:00,
2013-03-04 14:20:00,73.0,61.8,29.72,South,188,18.2,26.2,68,0.00,,---,0.00,VWS V14.01,2013-03-04 20:20:00,
2013-03-04 14:24:00,73.0,61.4,29.73,SE,142,25.2,29.2,67,0.00,,---,0.00,VWS V14.01,2013-03-04 20:24:00,
2013-03-04 14:25:00,72.7,61.5,29.72,SSE,153,14.2,23.2,68,0.00,,---,0.00,VWS V14.01,2013-03-04 20:25:00,
2013-03-04 14:29:00,73.2,61.6,29.73,South,186,15.2,22.2,67,0.00,,---,0.00,VWS V14.01,2013-03-04 20:29:00,
2013-03-04 14:30:00,72.1,61.4,29.71,SSE,161,16.2,29.2,69,0.00,,---,0.00,VWS V14.01,2013-03-04 20:30:00,
2013-03-04 14:34:00,73.0,61.4,29.73,SSE,148,16.2,25.2,67,0.00,,---,0.00,VWS V14.01,2013-03-04 20:34:00,
2013-03-04 14:35:00,72.1,61.4,29.71,SSE,166,15.2,30.2,69,0.00,,---,0.00,VWS V14.01,2013-03-04 20:35:00,
2013-03-04 14:39:00,73.3,61.7,29.73,SSE,156,24.2,24.2,67,0.00,,---,0.00,VWS V14.01,2013-03-04 20:39:00,
2013-03-04 14:40:00,72.5,61.8,29.71,South,181,12.2,26.2,69,0.00,,---,0.00,VWS V14.01,2013-03-04 20:40:00,
2013-03-04 14:44:00,73.0,61.4,29.73,SSE,157,11.2,27.2,67,0.00,,---,0.00,VWS V14.01,2013-03-04 20:44:00,
2013-03-04 14:45:00,72.5,61.8,29.71,South,177,10.2,21.2,69,0.00,,---,0.00,VWS V14.01,2013-03-04 20:45:00,
2013-03-04 14:49:00,73.2,61.6,29.73,South,171,15.2,21.2,67,0.00,,---,0.00,VWS V14.01,2013-03-04 20:49:00,
2013-03-04 14:50:00,72.3,61.6,29.71,SSW,199,12.2,22.2,69,0.00,,---,0.00,VWS V14.01,2013-03-04 20:50:00,
2013-03-04 14:54:00,73.0,61.4,29.73,SSE,158,15.2,28.2,67,0.00,,---,0.00,VWS V14.01,2013-03-04 20:54:00,
2013-03-04 14:55:00,72.3,61.6,29.71,South,184,14.2,24.2,69,0.00,,---,0.00,VWS V14.01,2013-03-04 20:55:00,
2013-03-04 14:59:00,73.0,61.8,29.73,SE,145,16.2,24.2,68,0.00,,---,0.00,VWS V14.01,2013-03-04 20:59:00,
2013-03-04 15:00:00,72.1,61.8,29.71,SSE,157,21.2,23.2,70,0.00,,---,0.00,VWS V14.01,2013-03-04 21:00:00,
2013-03-04 15:04:00,72.8,61.6,29.72,SSE,167,14.2,25.2,68,0.00,,---,0.00,VWS V14.01,2013-03-04 21:04:00,
2013-03-04 15:05:00,71.8,61.9,29.71,SSE,159,11.2,29.2,71,0.00,,---,0.00,VWS V14.01,2013-03-04 21:05:00,
2013-03-04 15:09:00,72.8,61.6,29.72,SE,142,21.2,23.2,68,0.00,,---,0.00,VWS V14.01,2013-03-04 21:09:00,
2013-03-04 15:10:00,71.6,62.1,29.71,SSE,150,17.2,28.2,72,0.00,,---,0.00,VWS V14.01,2013-03-04 21:10:00,
2013-03-04 15:14:00,72.3,61.6,29.72,SSE,149,19.2,24.2,69,0.00,,---,0.00,VWS V14.01,2013-03-04 21:14:00,
2013-03-04 15:15:00,71.6,61.7,29.70,South,178,21.2,27.2,71,0.00,,---,0.00,VWS V14.01,2013-03-04 21:15:00,
2013-03-04 15:19:00,72.8,61.6,29.72,SSE,159,13.2,26.2,68,0.00,,---,0.00,VWS V14.01,2013-03-04 21:19:00,
2013-03-04 15:20:00,71.6,62.1,29.70,South,176,15.2,30.2,72,0.00,,---,0.00,VWS V14.01,2013-03-04 21:20:00,
2013-03-04 15:24:00,73.0,61.8,29.72,ESE,113,17.2,23.2,68,0.00,,---,0.00,VWS V14.01,2013-03-04 21:24:00,
2013-03-04 15:25:00,71.6,62.1,29.70,SE,140,22.2,26.2,72,0.00,,---,0.00,VWS V14.01,2013-03-04 21:25:00,
2013-03-04 15:29:00,72.5,61.8,29.72,ESE,103,14.2,25.2,69,0.00,,---,0.00,VWS V14.01,2013-03-04 21:29:00,
2013-03-04 15:30:00,71.5,62.4,29.71,SE,144,21.2,25.2,73,0.00,,---,0.00,VWS V14.01,2013-03-04 21:30:00,
2013-03-04 15:34:00,72.3,61.6,29.71,SSE,153,14.2,23.2,69,0.00,,---,0.00,VWS V14.01,2013-03-04 21:34:00,
2013-03-04 15:35:00,71.3,62.6,29.71,SSE,160,10.2,25.2,74,0.00,,---,0.00,VWS V14.01,2013-03-04 21:35:00,
2013-03-04 15:39:00,72.5,61.8,29.71,South,169,11.2,26.2,69,0.00,,---,0.00,VWS V14.01,2013-03-04 21:39:00,
2013-03-04 15:40:00,71.1,62.4,29.71,South,182,18.2,22.2,74,0.00,,---,0.00,VWS V14.01,2013-03-04 21:40:00,
2013-03-04 15:44:00,72.5,61.8,29.71,South,175,14.2,21.2,69,0.00,,---,0.00,VWS V14.01,2013-03-04 21:44:00,
2013-03-04 15:45:00,70.9,62.6,29.71,South,170,13.2,24.2,75,0.00,,---,0.00,VWS V14.01,2013-03-04 21:45:00,
2013-03-04 15:49:00,72.3,60.7,29.70,SSW,193,22.2,22.2,67,0.00,,---,0.00,VWS V14.01,2013-03-04 21:49:00,
2013-03-04 15:50:00,70.8,62.5,29.71,SSE,166,16.2,27.2,75,0.00,,---,0.00,VWS V14.01,2013-03-04 21:50:00,
2013-03-04 15:54:00,72.5,61.8,29.70,SSE,164,17.2,24.2,69,0.00,,---,0.00,VWS V14.01,2013-03-04 21:54:00,
2013-03-04 15:55:00,70.8,62.5,29.71,SE,146,12.2,22.2,75,0.00,,---,0.00,VWS V14.01,2013-03-04 21:55:00,
2013-03-04 15:59:00,72.1,61.8,29.70,SSE,162,14.2,23.2,70,0.00,,---,0.00,VWS V14.01,2013-03-04 21:59:00,
2013-03-04 16:00:00,70.4,62.5,29.70,SSE,150,7.2,28.2,76,0.00,,---,0.00,VWS V14.01,2013-03-04 22:00:00,
2013-03-04 16:04:00,71.8,61.9,29.70,SSE,165,8.2,29.2,71,0.00,,---,0.00,VWS V14.01,2013-03-04 22:04:00,
2013-03-04 16:05:00,70.4,62.5,29.70,SSE,155,21.2,23.2,76,0.00,,---,0.00,VWS V14.01,2013-03-04 22:05:00,
2013-03-04 16:09:00,71.6,61.7,29.70,SSE,153,13.2,26.2,71,0.00,,---,0.00,VWS V14.01,2013-03-04 22:09:00,
2013-03-04 16:10:00,70.3,62.8,29.70,SSE,157,16.2,22.2,77,0.00,,---,0.00,VWS V14.01,2013-03-04 22:10:00,
2013-03-04 16:14:00,71.6,62.1,29.70,SE,135,22.2,27.2,72,0.00,,---,0.00,VWS V14.01,2013-03-04 22:14:00,
2013-03-04 16:15:00,69.9,63.5,29.71,SSE,157,18.2,25.2,80,0.00,,---,0.00,VWS V14.01,2013-03-04 22:15:00,
2013-03-04 16:19:00,71.5,62.0,29.70,SSE,153,10.2,30.2,72,0.00,,---,0.00,VWS V14.01,2013-03-04 22:19:00,
2013-03-04 16:20:00,69.6,62.4,29.71,South,179,14.2,27.2,78,0.00,,---,0.00,VWS V14.01,2013-03-04 22:20:00,
2013-03-04 16:24:00,71.6,62.1,29.70,SE,146,16.2,21.2,72,0.00,,---,0.00,VWS V14.01,2013-03-04 22:24:00,
2013-03-04 16:25:00,69.8,63.0,29.71,SE,143,11.2,24.2,79,0.00,,---,0.00,VWS V14.01,2013-03-04 22:25:00,
2013-03-04 16:29:00,71.6,62.1,29.70,SE,146,22.2,25.2,72,0.00,,---,0.00,VWS V14.01,2013-03-04 22:29:00,
2013-03-04 16:30:00,69.4,62.6,29.70,SSE,154,17.2,26.2,79,0.00,,---,0.00,VWS V14.01,2013-03-04 22:30:00,
2013-03-04 16:34:00,71.3,62.2,29.71,South,175,21.2,25.2,73,0.00,,---,0.00,VWS V14.01,2013-03-04 22:34:00,
2013-03-04 16:35:00,69.3,62.5,29.70,South,171,11.2,23.2,79,0.00,,---,0.00,VWS V14.01,2013-03-04 22:35:00,
2013-03-04 16:39:00,71.1,62.4,29.71,SSE,164,11.2,22.2,74,0.00,,---,0.00,VWS V14.01,2013-03-04 22:39:00,
2013-03-04 16:40:00,69.1,62.7,29.70,South,173,15.2,27.2,80,0.00,,---,0.00,VWS V14.01,2013-03-04 22:40:00,
2013-03-04 16:44:00,71.1,62.4,29.71,South,179,16.2,24.2,74,0.00,,---,0.00,VWS V14.01,2013-03-04 22:44:00,
2013-03-04 16:45:00,68.9,62.5,29.70,South,179,16.2,25.2,80,0.00,,---,0.00,VWS V14.01,2013-03-04 22:45:00,
2013-03-04 16:49:00,70.9,62.6,29.71,SE,144,22.2,27.2,75,0.00,,---,0.00,VWS V14.01,2013-03-04 22:49:00,
2013-03-04 16:50:00,68.8,62.7,29.70,South,169,19.2,29.2,81,0.00,,---,0.00,VWS V14.01,2013-03-04 22:50:00,
2013-03-04 16:54:00,70.8,62.5,29.71,SSE,149,14.2,22.2,75,0.00,,---,0.00,VWS V14.01,2013-03-04 22:54:00,
2013-03-04 16:55:00,68.6,62.5,29.70,SSE,149,13.2,25.2,81,0.00,,---,0.00,VWS V14.01,2013-03-04 22:55:00,
2013-03-04 16:59:00,70.6,62.7,29.71,SSE,168,14.2,28.2,76,0.00,,---,0.00,VWS V14.01,2013-03-04 22:59:00,
2013-03-04 17:00:00,68.4,62.3,29.71,South,177,14.2,24.2,81,0.00,,---,0.00,VWS V14.01,2013-03-04 23:00:00,
2013-03-04 17:04:00,70.4,62.5,29.70,SSE,147,14.2,23.2,76,0.00,,---,0.00,VWS V14.01,2013-03-04 23:04:00,
2013-03-04 17:05:00,68.4,62.3,29.71,SSE,159,15.2,25.2,81,0.00,,---,0.00,VWS V14.01,2013-03-04 23:05:00,
2013-03-04 17:09:00,70.3,62.8,29.70,South,171,16.2,22.2,77,0.00,,---,0.00,VWS V14.01,2013-03-04 23:09:00,
2013-03-04 17:10:00,68.3,62.2,29.71,South,170,17.2,26.2,81,0.00,,---,0.00,VWS V14.01,2013-03-04 23:10:00,
2013-03-04 17:14:00,69.9,62.4,29.70,SSE,156,17.2,25.2,77,0.00,,---,0.00,VWS V14.01,2013-03-04 23:14:00,
2013-03-04 17:15:00,68.3,62.6,29.70,SE,128,10.2,25.2,82,0.00,,---,0.00,VWS V14.01,2013-03-04 23:15:00,
2013-03-04 17:19:00,69.8,62.6,29.70,SSE,168,19.2,27.2,78,0.00,,---,0.00,VWS V14.01,2013-03-04 23:19:00,
2013-03-04 17:20:00,68.1,62.4,29.70,SSE,159,14.2,24.2,82,0.00,,---,0.00,VWS V14.01,2013-03-04 23:20:00,
2013-03-04 17:24:00,69.6,62.8,29.70,SE,144,13.2,24.2,79,0.00,,---,0.00,VWS V14.01,2013-03-04 23:24:00,
2013-03-04 17:25:00,67.9,62.2,29.70,ESE,121,18.2,28.2,82,0.00,,---,0.00,VWS V14.01,2013-03-04 23:25:00,
2013-03-04 17:29:00,69.6,62.8,29.70,SE,143,7.2,26.2,79,0.00,,---,0.00,VWS V14.01,2013-03-04 23:29:00,
2013-03-04 17:30:00,67.8,62.1,29.70,SSE,155,10.2,25.2,82,0.00,,---,0.00,VWS V14.01,2013-03-04 23:30:00,
2013-03-04 17:34:00,69.4,62.6,29.70,SE,143,18.2,22.2,79,0.00,,---,0.00,VWS V14.01,2013-03-04 23:34:00,
2013-03-04 17:35:00,67.8,62.5,29.70,SSE,148,20.2,25.2,83,0.00,,---,0.00,VWS V14.01,2013-03-04 23:35:00,
2013-03-04 17:39:00,69.1,62.7,29.70,ESE,123,12.2,20.2,80,0.00,,---,0.00,VWS V14.01,2013-03-04 23:39:00,
2013-03-04 17:40:00,67.6,62.3,29.70,South,190,16.2,26.2,83,0.00,,---,0.00,VWS V14.01,2013-03-04 23:40:00,
2013-03-04 17:44:00,68.9,62.5,29.70,SSW,198,22.2,24.2,80,0.00,,---,0.00,VWS V14.01,2013-03-04 23:44:00,
2013-03-04 17:45:00,67.8,62.8,29.72,SE,142,16.2,23.2,84,0.00,,---,0.00,VWS V14.01,2013-03-04 23:45:00,
2013-03-04 17:49:00,68.8,62.7,29.70,SSE,157,18.2,29.2,81,0.00,,---,0.00,VWS V14.01,2013-03-04 23:49:00,
2013-03-04 17:50:00,67.6,62.6,29.72,South,179,16.2,23.2,84,0.00,,---,0.00,VWS V14.01,2013-03-04 23:50:00,
2013-03-04 17:54:00,68.6,62.5,29.70,SSE,153,15.2,25.2,81,0.00,,---,0.00,VWS V14.01,2013-03-04 23:54:00,
2013-03-04 17:55:00,67.6,62.6,29.72,South,190,14.2,23.2,84,0.00,,---,0.00,VWS V14.01,2013-03-04 23:55:00,
2013-03-04 17:59:00,68.6,62.5,29.70,SSE,159,22.2,24.2,81,0.00,,---,0.00,VWS V14.01,2013-03-04 23:59:00,
2013-03-04 18:00:00,67.6,62.6,29.72,SSE,161,12.2,24.2,84,0.00,,---,0.00,VWS V14.01,2013-03-05 00:00:00,
2013-03-04 18:04:00,68.4,62.3,29.70,South,187,14.2,25.2,81,0.00,,---,0.00,VWS V14.01,2013-03-05 00:04:00,
2013-03-04 18:05:00,67.6,62.6,29.72,SSE,157,16.2,18.2,84,0.00,,---,0.00,VWS V14.01,2013-03-05 00:05:00,
2013-03-04 18:09:00,68.3,62.2,29.70,SE,146,8.2,23.2,81,0.00,,---,0.00,VWS V14.01,2013-03-05 00:09:00,
2013-03-04 18:10:00,67.6,62.6,29.72,SSE,167,17.2,23.2,84,0.00,,---,0.00,VWS V14.01,2013-03-05 00:10:00,
2013-03-04 18:14:00,68.3,62.6,29.70,SE,140,16.2,25.2,82,0.00,,---,0.00,VWS V14.01,2013-03-05 00:14:00,
2013-03-04 18:15:00,67.4,62.4,29.73,SSE,148,12.2,22.2,84,0.00,,---,0.00,VWS V14.01,2013-03-05 00:15:00,
2013-03-04 18:19:00,68.1,62.4,29.70,South,178,13.2,23.2,82,0.00,,---,0.00,VWS V14.01,2013-03-05 00:19:00,
2013-03-04 18:20:00,67.4,62.4,29.73,South,188,16.2,25.2,84,0.00,,---,0.00,VWS V14.01,2013-03-05 00:20:00,
2013-03-04 18:24:00,67.9,62.2,29.70,South,181,13.2,28.2,82,0.00,,---,0.00,VWS V14.01,2013-03-05 00:24:00,
2013-03-04 18:25:00,67.4,62.7,29.73,SE,140,15.2,26.2,85,0.00,,---,0.00,VWS V14.01,2013-03-05 00:25:00,
2013-03-04 18:29:00,67.8,62.1,29.70,South,178,21.2,25.2,82,0.00,,---,0.00,VWS V14.01,2013-03-05 00:29:00,
2013-03-04 18:30:00,67.3,62.6,29.73,South,171,14.2,23.2,85,0.00,,---,0.00,VWS V14.01,2013-03-05 00:30:00,
2013-03-04 18:34:00,67.8,62.5,29.70,SSE,167,11.2,23.2,83,0.00,,---,0.00,VWS V14.01,2013-03-05 00:34:00,
2013-03-04 18:35:00,67.3,62.6,29.73,SE,146,17.2,28.2,85,0.00,,---,0.00,VWS V14.01,2013-03-05 00:35:00,
2013-03-04 18:39:00,67.8,62.5,29.70,SSE,152,13.2,20.2,83,0.00,,---,0.00,VWS V14.01,2013-03-05 00:39:00,
2013-03-04 18:40:00,67.3,62.6,29.73,SE,144,18.2,22.2,85,0.00,,---,0.00,VWS V14.01,2013-03-05 00:40:00,
2013-03-04 18:44:00,67.6,62.6,29.70,SE,134,23.2,23.2,84,0.00,,---,0.00,VWS V14.01,2013-03-05 00:44:00,
2013-03-04 18:45:00,67.3,62.6,29.73,SSE,165,12.2,22.2,85,0.00,,---,0.00,VWS V14.01,2013-03-05 00:45:00,
2013-03-04 18:49:00,67.6,62.6,29.72,South,173,8.2,23.2,84,0.00,,---,0.00,VWS V14.01,2013-03-05 00:49:00,
2013-03-04 18:50:00,67.3,62.0,29.73,SSE,154,14.2,27.2,83,0.00,,---,0.00,VWS V14.01,2013-03-05 00:50:00,
2013-03-04 18:54:00,67.6,62.6,29.72,SE,136,11.2,23.2,84,0.00,,---,0.00,VWS V14.01,2013-03-05 00:54:00,
2013-03-04 18:55:00,67.3,62.6,29.73,SE,144,12.2,26.2,85,0.00,,---,0.00,VWS V14.01,2013-03-05 00:55:00,
2013-03-04 18:59:00,67.6,62.6,29.72,SSE,155,19.2,24.2,84,0.00,,---,0.00,VWS V14.01,2013-03-05 00:59:00,
2013-03-04 19:00:00,67.3,63.0,29.75,South,173,13.2,20.2,86,0.00,,---,0.00,VWS V14.01,2013-03-05 01:00:00,
2013-03-04 19:04:00,67.6,62.6,29.72,SSE,162,14.2,18.2,84,0.00,,---,0.00,VWS V14.01,2013-03-05 01:04:00,
2013-03-04 19:05:00,67.1,62.8,29.75,SSE,167,16.2,25.2,86,0.00,,---,0.00,VWS V14.01,2013-03-05 01:05:00,
2013-03-04 19:09:00,67.6,62.6,29.72,ESE,121,10.2,23.2,84,0.00,,---,0.00,VWS V14.01,2013-03-05 01:09:00,
2013-03-04 19:10:00,67.1,62.8,29.75,SSE,158,10.2,21.2,86,0.00,,---,0.00,VWS V14.01,2013-03-05 01:10:00,
2013-03-04 19:14:00,67.4,62.4,29.72,South,180,19.2,22.2,84,0.00,,---,0.00,VWS V14.01,2013-03-05 01:14:00,
2013-03-04 19:15:00,67.1,62.8,29.75,SSE,155,15.2,21.2,86,0.00,,---,0.00,VWS V14.01,2013-03-05 01:15:00,
2013-03-04 19:19:00,67.4,62.4,29.73,SE,138,17.2,24.2,84,0.00,,---,0.00,VWS V14.01,2013-03-05 01:19:00,
2013-03-04 19:20:00,67.1,62.8,29.75,SSE,163,14.2,23.2,86,0.00,,---,0.00,VWS V14.01,2013-03-05 01:20:00,
2013-03-04 19:24:00,67.4,62.4,29.73,SE,128,14.2,26.2,84,0.00,,---,0.00,VWS V14.01,2013-03-05 01:24:00,
2013-03-04 19:25:00,67.1,62.8,29.75,SSE,160,10.2,20.2,86,0.00,,---,0.00,VWS V14.01,2013-03-05 01:25:00,
2013-03-04 19:29:00,67.3,62.6,29.73,SSE,158,23.2,23.2,85,0.00,,---,0.00,VWS V14.01,2013-03-05 01:29:00,
2013-03-04 19:30:00,66.9,62.9,29.75,SSE,168,13.2,25.2,87,0.00,,---,0.00,VWS V14.01,2013-03-05 01:30:00,
2013-03-04 19:34:00,67.3,62.6,29.73,South,170,11.2,28.2,85,0.00,,---,0.00,VWS V14.01,2013-03-05 01:34:00,
2013-03-04 19:35:00,66.9,62.9,29.75,SSE,147,14.2,22.2,87,0.00,,---,0.00,VWS V14.01,2013-03-05 01:35:00,
2013-03-04 19:39:00,67.3,62.6,29.73,SSE,148,14.2,22.2,85,0.00,,---,0.00,VWS V14.01,2013-03-05 01:39:00,
2013-03-04 19:40:00,66.9,62.9,29.75,South,181,17.2,19.2,87,0.00,,---,0.00,VWS V14.01,2013-03-05 01:40:00,
2013-03-04 19:44:00,67.3,62.6,29.73,SE,141,11.2,19.2,85,0.00,,---,0.00,VWS V14.01,2013-03-05 01:44:00,
2013-03-04 19:45:00,67.1,63.1,29.75,South,174,7.2,22.2,87,0.00,,---,0.00,VWS V14.01,2013-03-05 01:45:00,
2013-03-04 19:49:00,67.3,62.6,29.73,SE,133,16.2,24.2,85,0.00,,---,0.00,VWS V14.01,2013-03-05 01:49:00,
2013-03-04 19:50:00,67.1,63.1,29.75,SSE,159,10.2,21.2,87,0.00,,---,0.00,VWS V14.01,2013-03-05 01:50:00,
2013-03-04 19:54:00,67.3,62.6,29.73,SSE,149,14.2,26.2,85,0.00,,---,0.00,VWS V14.01,2013-03-05 01:54:00,
2013-03-04 19:55:00,67.1,63.1,29.75,SE,140,17.2,25.2,87,0.00,,---,0.00,VWS V14.01,2013-03-05 01:55:00,
2013-03-04 19:59:00,67.3,62.6,29.73,SSE,147,18.2,19.2,85,0.00,,---,0.00,VWS V14.01,2013-03-05 01:59:00,
2013-03-04 20:00:00,66.9,62.9,29.75,South,184,10.2,29.2,87,0.00,,---,0.00,VWS V14.01,2013-03-05 02:00:00,
2013-03-04 20:04:00,67.3,63.0,29.75,SSE,153,10.2,25.2,86,0.00,,---,0.00,VWS V14.01,2013-03-05 02:04:00,
2013-03-04 20:05:00,66.9,62.9,29.75,South,171,18.2,25.2,87,0.00,,---,0.00,VWS V14.01,2013-03-05 02:05:00,
2013-03-04 20:09:00,67.1,62.8,29.75,South,171,11.2,21.2,86,0.00,,---,0.00,VWS V14.01,2013-03-05 02:09:00,
2013-03-04 20:10:00,66.8,62.8,29.75,SSE,158,12.2,21.2,87,0.00,,---,0.00,VWS V14.01,2013-03-05 02:10:00,
2013-03-04 20:14:00,67.1,62.8,29.75,SSE,150,15.2,20.2,86,0.00,,---,0.00,VWS V14.01,2013-03-05 02:14:00,
2013-03-04 20:15:00,66.8,63.1,29.76,South,173,11.2,19.2,88,0.00,,---,0.00,VWS V14.01,2013-03-05 02:15:00,
2013-03-04 20:19:00,67.1,62.8,29.75,South,180,15.2,23.2,86,0.00,,---,0.00,VWS V14.01,2013-03-05 02:19:00,
2013-03-04 20:20:00,66.6,62.9,29.76,South,170,13.2,23.2,88,0.00,,---,0.00,VWS V14.01,2013-03-05 02:20:00,
2013-03-04 20:24:00,67.1,62.8,29.75,SSE,161,8.2,20.2,86,0.00,,---,0.00,VWS V14.01,2013-03-05 02:24:00,
2013-03-04 20:25:00,66.6,62.9,29.76,South,180,13.2,19.2,88,0.00,,---,0.00,VWS V14.01,2013-03-05 02:25:00,
2013-03-04 20:29:00,66.9,62.6,29.75,SSE,161,8.2,25.2,86,0.00,,---,0.00,VWS V14.01,2013-03-05 02:29:00,
2013-03-04 20:30:00,66.4,62.7,29.77,SSE,162,13.2,19.2,88,0.00,,---,0.00,VWS V14.01,2013-03-05 02:30:00,
2013-03-04 20:34:00,66.9,62.9,29.75,SSE,157,11.2,20.2,87,0.00,,---,0.00,VWS V14.01,2013-03-05 02:34:00,
2013-03-04 20:35:00,66.4,63.1,29.77,South,169,13.2,17.2,89,0.00,,---,0.00,VWS V14.01,2013-03-05 02:35:00,
2013-03-04 20:39:00,66.9,62.9,29.75,South,188,17.2,19.2,87,0.00,,---,0.00,VWS V14.01,2013-03-05 02:39:00,
2013-03-04 20:40:00,66.4,63.1,29.77,SSE,157,11.2,18.2,89,0.00,,---,0.00,VWS V14.01,2013-03-05 02:40:00,
2013-03-04 20:44:00,67.1,63.1,29.75,SSE,158,12.2,22.2,87,0.00,,---,0.00,VWS V14.01,2013-03-05 02:44:00,
2013-03-04 20:45:00,66.3,63.0,29.77,SSE,155,8.2,13.2,89,0.00,,---,0.00,VWS V14.01,2013-03-05 02:45:00,
2013-03-04 20:49:00,67.1,63.1,29.75,SSE,147,8.2,20.2,87,0.00,,---,0.00,VWS V14.01,2013-03-05 02:49:00,
2013-03-04 20:50:00,66.3,63.0,29.77,SSE,156,12.2,18.2,89,0.00,,---,0.00,VWS V14.01,2013-03-05 02:50:00,
2013-03-04 20:54:00,67.1,63.1,29.75,SSE,149,15.2,21.2,87,0.00,,---,0.00,VWS V14.01,2013-03-05 02:54:00,
2013-03-04 20:55:00,66.3,63.0,29.77,SE,134,15.2,17.2,89,0.00,,---,0.00,VWS V14.01,2013-03-05 02:55:00,
2013-03-04 20:59:00,66.9,62.9,29.75,SSE,159,15.2,29.2,87,0.00,,---,0.00,VWS V14.01,2013-03-05 02:59:00,
2013-03-04 21:00:00,66.3,63.3,29.78,SSE,161,10.2,15.2,90,0.00,,---,0.00,VWS V14.01,2013-03-05 03:00:00,
2013-03-04 21:04:00,66.9,62.9,29.75,SSE,164,7.2,25.2,87,0.00,,---,0.00,VWS V14.01,2013-03-05 03:04:00,
2013-03-04 21:05:00,66.1,63.1,29.78,SSE,161,10.2,18.2,90,0.00,,---,0.00,VWS V14.01,2013-03-05 03:05:00,
2013-03-04 21:09:00,66.9,62.9,29.75,South,180,12.2,21.2,87,0.00,,---,0.00,VWS V14.01,2013-03-05 03:09:00,
2013-03-04 21:10:00,66.1,63.1,29.78,South,190,6.2,13.2,90,0.00,,---,0.00,VWS V14.01,2013-03-05 03:10:00,
2013-03-04 21:14:00,66.8,63.1,29.75,SSE,153,12.2,19.2,88,0.00,,---,0.00,VWS V14.01,2013-03-05 03:14:00,
2013-03-04 21:15:00,66.1,63.1,29.78,South,175,10.2,16.2,90,0.00,,---,0.00,VWS V14.01,2013-03-05 03:15:00,
2013-03-04 21:19:00,66.6,62.9,29.76,South,186,10.2,23.2,88,0.00,,---,0.00,VWS V14.01,2013-03-05 03:19:00,
2013-03-04 21:20:00,66.0,63.0,29.78,South,170,8.2,13.2,90,0.00,,---,0.00,VWS V14.01,2013-03-05 03:20:00,
2013-03-04 21:24:00,66.6,62.9,29.76,SSE,153,16.2,19.2,88,0.00,,---,0.00,VWS V14.01,2013-03-05 03:24:00,
2013-03-04 21:25:00,66.0,63.3,29.78,SSE,164,14.2,18.2,91,0.00,,---,0.00,VWS V14.01,2013-03-05 03:25:00,
2013-03-04 21:29:00,66.4,62.7,29.76,South,178,11.2,19.2,88,0.00,,---,0.00,VWS V14.01,2013-03-05 03:29:00,
2013-03-04 21:30:00,66.0,63.3,29.77,South,179,11.2,18.2,91,0.00,,---,0.00,VWS V14.01,2013-03-05 03:30:00,
2013-03-04 21:34:00,66.4,62.7,29.76,South,178,12.2,17.2,88,0.00,,---,0.00,VWS V14.01,2013-03-05 03:34:00,
2013-03-04 21:35:00,66.0,63.3,29.77,South,176,14.2,18.2,91,0.00,,---,0.00,VWS V14.01,2013-03-05 03:35:00,
2013-03-04 21:39:00,66.4,63.1,29.76,South,175,13.2,18.2,89,0.00,,---,0.00,VWS V14.01,2013-03-05 03:39:00,
2013-03-04 21:40:00,65.8,63.1,29.77,SE,144,10.2,17.2,91,0.00,,---,0.00,VWS V14.01,2013-03-05 03:40:00,
2013-03-04 21:44:00,66.3,63.0,29.76,South,173,11.2,13.2,89,0.00,,---,0.00,VWS V14.01,2013-03-05 03:44:00,
2013-03-04 21:45:00,65.6,62.9,29.77,SE,142,8.2,17.2,91,0.00,,---,0.00,VWS V14.01,2013-03-05 03:45:00,
2013-03-04 21:49:00,66.3,63.0,29.77,South,173,8.2,14.2,89,0.00,,---,0.00,VWS V14.01,2013-03-05 03:49:00,
2013-03-04 21:50:00,65.6,63.2,29.77,SE,142,15.2,15.2,92,0.00,,---,0.00,VWS V14.01,2013-03-05 03:50:00,
2013-03-04 21:54:00,66.3,63.0,29.77,South,190,8.2,17.2,89,0.00,,---,0.00,VWS V14.01,2013-03-05 03:54:00,
2013-03-04 21:55:00,65.6,63.2,29.77,SE,134,10.2,19.2,92,0.00,,---,0.00,VWS V14.01,2013-03-05 03:55:00,
2013-03-04 21:59:00,66.3,63.0,29.77,South,170,9.2,15.2,89,0.00,,---,0.00,VWS V14.01,2013-03-05 03:59:00,
2013-03-04 22:00:00,65.6,63.2,29.77,SSE,153,12.2,21.2,92,0.00,,---,0.00,VWS V14.01,2013-03-05 04:00:00,
2013-03-04 22:04:00,66.1,63.1,29.78,South,171,8.2,18.2,90,0.00,,---,0.00,VWS V14.01,2013-03-05 04:04:00,
2013-03-04 22:05:00,65.5,63.1,29.77,SSE,161,5.2,23.2,92,0.00,,---,0.00,VWS V14.01,2013-03-05 04:05:00,
2013-03-04 22:09:00,66.1,63.1,29.78,SSW,192,10.2,12.2,90,0.00,,---,0.00,VWS V14.01,2013-03-05 04:09:00,
2013-03-04 22:10:00,65.5,63.1,29.77,South,185,11.2,20.2,92,0.00,,---,0.00,VWS V14.01,2013-03-05 04:10:00,
2013-03-04 22:14:00,66.1,63.1,29.78,SE,144,9.2,16.2,90,0.00,,---,0.00,VWS V14.01,2013-03-05 04:14:00,
2013-03-04 22:15:00,65.5,63.1,29.77,SE,132,7.2,18.2,92,0.00,,---,0.00,VWS V14.01,2013-03-05 04:15:00,
2013-03-04 22:19:00,66.0,63.0,29.78,South,191,7.2,13.2,90,0.00,,---,0.00,VWS V14.01,2013-03-05 04:19:00,
2013-03-04 22:20:00,65.5,63.1,29.77,South,184,13.2,16.2,92,0.00,,---,0.00,VWS V14.01,2013-03-05 04:20:00,
2013-03-04 22:24:00,66.0,63.3,29.78,SE,136,16.2,16.2,91,0.00,,---,0.00,VWS V14.01,2013-03-05 04:24:00,
2013-03-04 22:25:00,65.5,63.1,29.77,SSE,151,7.2,18.2,92,0.00,,---,0.00,VWS V14.01,2013-03-05 04:25:00,
2013-03-04 22:29:00,66.0,63.3,29.78,South,173,11.2,17.2,91,0.00,,---,0.00,VWS V14.01,2013-03-05 04:29:00,
2013-03-04 22:30:00,65.3,62.9,29.76,South,180,14.2,18.2,92,0.00,,---,0.00,VWS V14.01,2013-03-05 04:30:00,
2013-03-04 22:34:00,66.0,63.3,29.77,South,181,12.2,17.2,91,0.00,,---,0.00,VWS V14.01,2013-03-05 04:34:00,
2013-03-04 22:35:00,65.5,63.1,29.76,SSE,153,5.2,17.2,92,0.00,,---,0.00,VWS V14.01,2013-03-05 04:35:00,
2013-03-04 22:39:00,65.8,63.1,29.77,SE,140,12.2,17.2,91,0.00,,---,0.00,VWS V14.01,2013-03-05 04:39:00,
2013-03-04 22:40:00,65.3,62.9,29.76,South,171,10.2,15.2,92,0.00,,---,0.00,VWS V14.01,2013-03-05 04:40:00,
2013-03-04 22:44:00,65.8,63.1,29.77,SSE,160,13.2,13.2,91,0.00,,---,0.00,VWS V14.01,2013-03-05 04:44:00,
2013-03-04 22:45:00,65.3,62.9,29.76,South,169,6.2,13.2,92,0.00,,---,0.00,VWS V14.01,2013-03-05 04:45:00,
2013-03-04 22:49:00,65.6,63.2,29.76,South,173,7.2,15.2,92,0.00,,---,0.00,VWS V14.01,2013-03-05 04:49:00,
2013-03-04 22:50:00,65.2,63.1,29.76,SSE,165,11.2,16.2,93,0.00,,---,0.00,VWS V14.01,2013-03-05 04:50:00,
2013-03-04 22:54:00,65.6,63.2,29.76,SE,144,12.2,19.2,92,0.00,,---,0.00,VWS V14.01,2013-03-05 04:54:00,
2013-03-04 22:55:00,65.2,63.1,29.76,SSE,166,4.2,15.2,93,0.00,,---,0.00,VWS V14.01,2013-03-05 04:55:00,
2013-03-04 22:59:00,65.6,63.2,29.76,SSE,150,5.2,21.2,92,0.00,,---,0.00,VWS V14.01,2013-03-05 04:59:00,
2013-03-04 23:00:00,65.6,63.2,29.76,SSE,163,7.2,21.2,92,0.00,,---,0.00,VWS V14.01,2013-03-05 05:00:00,
2013-03-04 23:05:00,65.5,63.1,29.76,SSE,153,6.2,23.2,92,0.00,,---,0.00,VWS V14.01,2013-03-05 05:05:00,
2013-03-04 23:10:00,65.5,63.1,29.76,South,182,11.2,20.2,92,0.00,,---,0.00,VWS V14.01,2013-03-05 05:10:00,
2013-03-04 23:15:00,65.5,63.1,29.76,SSW,198,8.2,18.2,92,0.00,,---,0.00,VWS V14.01,2013-03-05 05:15:00,
2013-03-04 23:20:00,65.5,63.1,29.76,SE,143,6.2,15.2,92,0.00,,---,0.00,VWS V14.01,2013-03-05 05:20:00,
2013-03-04 23:25:00,65.5,63.1,29.76,SSW,195,8.2,18.2,92,0.00,,---,0.00,VWS V14.01,2013-03-05 05:25:00,
2013-03-04 23:30:00,65.3,62.9,29.76,SSE,147,6.2,18.2,92,0.00,,---,0.00,VWS V14.01,2013-03-05 05:30:00,
2013-03-04 23:35:00,65.3,62.9,29.76,SSE,150,10.2,17.2,92,0.00,,---,0.00,VWS V14.01,2013-03-05 05:35:00,
2013-03-04 23:40:00,65.3,62.9,29.76,South,171,3.2,12.2,92,0.00,,---,0.00,VWS V14.01,2013-03-05 05:40:00,
2013-03-04 23:45:00,65.3,62.9,29.76,SSW,195,6.2,13.2,92,0.00,,---,0.00,VWS V14.01,2013-03-05 05:45:00,
2013-03-04 23:50:00,65.2,63.1,29.76,SSE,153,11.2,16.2,93,0.00,,---,0.00,VWS V14.01,2013-03-05 05:50:00,
2013-03-04 23:55:00,65.2,63.1,29.76,SSE,150,15.2,15.2,93,0.00,,---,0.00,VWS V14.01,2013-03-05 05:55:00,